Effective Sunday, March 17, 2024, the National Weather Service National Data Buoy Center will discontinue its Dial-A-Buoy Interactive Voice Response system. For more information, see Service Change Notice 24-06 (PDF).

Station OCIM2 - 8570283 - Ocean City Inlet, MD Image indicating link to RSS feed of recent meteorological observations for station OCIM2


Conditions at OCIM2 as of
(9:54 pm EST on 02/23/2024)
0254 GMT on 02/24/2024:
     

Click on the graph icon in the table below to see a time series plot of the last five days of that observation.

5-day plot - Wind Direction Wind Direction (WDIR):NNW ( 340 deg true )
5-day plot - Wind Speed Wind Speed (WSPD): 8.0 kts
5-day plot - Wind Gust Wind Gust (GST): 9.9 kts
5-day plot - Atmospheric Pressure Atmospheric Pressure (PRES):29.47 in
5-day plot - Air Temperature Air Temperature (ATMP): 44.4 °F
5-day plot - Water Temperature Water Temperature (WTMP): 42.8 °F
5-day plot - Wind Chill Wind Chill (CHILL): 39.4 °F
5-day plot - Wind Speed at 10 Meters Wind Speed at 10 meters (WSPD10M): 7.8 kts
5-day plot - Wind Speed at 20 Meters Wind Speed at 20 meters (WSPD20M): 9.7 kts
5-day plot -  Wind Speed, Wind Gust and Atmospheric Pressure Combined plot of Wind Speed, Gust, and Air Pressure
NOS Water Level Observation Network Water Level
Previous observations
TIME
(EST)
5-day plot - Wind Direction
WDIR
 
5-day plot - Wind Speed
WSPD
kts
5-day plot - Wind Gust
GST
kts
5-day plot - Wave Height
WVHT
ft
5-day plot - Dominant Wave Period
DPD
sec
5-day plot - Average Wave Period
APD
sec
5-day plot - Mean Wave Direction
MWD
 
5-day plot - Atmospheric Pressure
PRES
in
5-day plot - Pressure Tendency
PTDY
in
5-day plot - Air Temperature
ATMP
°F
5-day plot - Water Temperature
WTMP
°F
5-day plot - Dew Point
DEWP
°F
5-day plot - Salinity
SAL
psu
5-day plot - Visibility
VIS
nmi
5-day plot - Tide (above MLLW)
TIDE
ft
2024-02-23 09:48 pmNNW 7.0 8.9----29.47- 44.6 42.8----
2024-02-23 09:42 pmNNW 7.0 8.9----29.47- 44.4 42.8----
2024-02-23 09:36 pmNNW 6.0 8.0----29.47- 44.4 42.8----
2024-02-23 09:30 pmNNW 6.0 8.0----29.47- 44.4 42.8----
2024-02-23 09:24 pmNNW 7.0 8.9----29.47- 44.6 42.8----
2024-02-23 09:18 pmNNW 7.0 8.9----29.47- 44.6 42.8----
2024-02-23 09:12 pmNNW 8.9 12.0----29.47- 44.6 42.8----
2024-02-23 09:06 pmNNW 8.0 9.9----29.47- 44.6 42.8----
2024-02-23 09:00 pmNNW 8.9 11.1----29.47+0.06 44.6 42.8----
2024-02-23 08:54 pmNNW 8.0 11.1----29.47- 44.6 42.8----
2024-02-23 08:48 pmNNW 7.0 8.9----29.47- 44.6 42.8----
2024-02-23 08:42 pm NW 5.1 7.0----29.47- 44.6 42.8----
2024-02-23 08:36 pm NW 7.0 9.9----29.47- 44.8 42.8----
2024-02-23 08:30 pm NW 7.0 9.9----29.47-------
2024-02-23 08:24 pm NW 7.0 8.9----29.46-------
2024-02-23 08:18 pm NW 8.9 11.1----29.46-- 42.8----
2024-02-23 08:12 pm NW 8.0 8.9----29.45-- 42.8----
2024-02-23 08:06 pm NW 8.0 9.9----29.45-- 42.8----
2024-02-23 08:00 pmNNW 8.0 9.9----29.44+0.04- 42.8----
2024-02-23 07:54 pmNNW 8.0 9.9----29.44-- 42.8----
2024-02-23 07:48 pmNNW 8.0 11.1----29.44-- 42.8----
2024-02-23 07:42 pmNNW 8.9 11.1----29.44-- 42.8----
2024-02-23 07:36 pm N 8.9 9.9----29.44-- 42.8----
2024-02-23 07:30 pm N 7.0 8.9----29.44-- 42.8----
2024-02-23 07:24 pm N 7.0 8.9----29.44-- 42.8----
2024-02-23 07:18 pm N 8.9 9.9----29.44-- 42.8----
2024-02-23 07:12 pm N 8.0 9.9----29.44-- 42.8----
2024-02-23 07:06 pm N 8.9 13.0----29.43-- 42.8----
2024-02-23 07:00 pm N 8.9 11.1----29.42+0.04------
2024-02-23 06:54 pm N 7.0 8.0----29.42-------
2024-02-23 06:48 pm N 7.0 8.9----29.42- 45.3 43.0----
2024-02-23 06:42 pm N 7.0 8.9----29.42- 45.5 43.0----
2024-02-23 06:36 pm N 7.0 8.0----29.42- 45.3 43.0----
2024-02-23 06:30 pm N 6.0 8.0----29.42- 45.5 43.0----
2024-02-23 06:24 pm N 6.0 8.0----29.42- 45.3 43.0----
2024-02-23 06:18 pm N 7.0 8.0----29.41-- 43.0----
2024-02-23 06:06 pm N 7.0 8.9----29.41-- 43.0----
2024-02-23 06:00 pm N 7.0 8.0----29.41+0.02 45.5 43.0----
2024-02-23 05:54 pm N 6.0 8.0----29.41- 45.5 43.0----
2024-02-23 05:48 pm N 6.0 8.0----29.41- 45.5 43.2----
2024-02-23 05:42 pm N 7.0 8.9----29.41- 45.5 43.3----
2024-02-23 05:36 pm N 7.0 8.9----29.41- 45.5 43.5----
2024-02-23 05:30 pm N 7.0 8.9----29.40- 45.3 43.5----
2024-02-23 05:24 pm N 7.0 8.0----29.40- 46.4 43.7----
2024-02-23 05:18 pm N 8.0 9.9----29.40- 46.6 43.7----
2024-02-23 05:12 pm N 8.0 9.9----29.40- 46.6 43.7----
2024-02-23 05:06 pm N 8.9 11.1----29.40- 46.8 43.7----
2024-02-23 05:00 pm N 8.0 9.9----29.40+0.00 46.8 43.7----
2024-02-23 04:54 pmNNW 8.9 12.0----29.40- 46.9 43.7----
2024-02-23 04:48 pmNNW 8.9 13.0----29.40- 47.1 43.7----
2024-02-23 04:42 pmNNW 9.9 12.0----29.39- 47.1 43.7----
2024-02-23 04:36 pmNNW 7.0 8.9----29.39- 47.3 43.7----
2024-02-23 04:30 pmNNW 9.9 12.0----29.39- 47.3 43.5----
2024-02-23 04:24 pmNNW 8.9 12.0----29.39- 47.5 43.5----
2024-02-23 04:18 pmNNW 9.9 12.0----29.39- 47.5 43.5----
2024-02-23 04:12 pmNNW 8.9 12.0----29.39- 47.5 43.5----
2024-02-23 04:06 pmNNW 8.0 11.1----29.39- 47.5 43.5----
2024-02-23 04:00 pmNNW 7.0 9.9----29.39-0.02 47.7 43.5----
2024-02-23 03:54 pmNNW 8.0 9.9----29.39- 47.7 43.5----
2024-02-23 03:48 pmNNW 8.0 11.1----29.39- 47.8 43.5----
2024-02-23 03:42 pmNNW 8.0 9.9----29.39- 47.7 43.5----
2024-02-23 03:36 pmNNW 8.0 12.0----29.39- 48.0 43.5----
2024-02-23 03:30 pm NW 8.9 11.1----29.38- 47.8 43.5----
2024-02-23 03:24 pm NW 7.0 11.1----29.39- 47.8 43.5----
2024-02-23 03:18 pm NW 7.0 9.9----29.39- 48.6 43.3----
2024-02-23 03:12 pmNNW 5.1 6.0----29.39- 48.6 43.3----
2024-02-23 03:06 pmWNW 5.1 7.0----29.39- 48.7 43.3----
2024-02-23 03:00 pm W 2.9 2.9----29.39-0.06 46.9 43.3----
2024-02-23 02:54 pm W 1.0 1.9----29.39- 46.9 43.2----
2024-02-23 02:48 pmWSW 1.0 1.9----29.39- 46.8 43.2----
2024-02-23 02:42 pm- 0.0 1.0----29.39- 46.2 43.2----
2024-02-23 02:36 pm- 0.0 1.0----29.39- 46.0 43.2----
2024-02-23 02:30 pm SW 1.0 2.9----29.39- 45.9 43.0----
2024-02-23 02:24 pm SW 4.1 5.1----29.39- 45.9 43.0----
2024-02-23 02:18 pm SW 4.1 5.1----29.39- 45.9 43.0----
2024-02-23 02:12 pm SW 5.1 5.1----29.39- 46.4 42.8----
2024-02-23 02:06 pm SW 6.0 6.0----29.39- 46.2 42.8----
2024-02-23 02:00 pm SW 5.1 7.0----29.39-0.06 46.4 42.8----
2024-02-23 01:54 pm SW 6.0 6.0----29.39- 45.9 42.8----
2024-02-23 01:48 pmSSW 5.1 6.0----29.40- 44.8 42.8----
2024-02-23 01:42 pmSSW 5.1 6.0----29.40- 45.1 42.8----
2024-02-23 01:36 pmSSW 7.0 7.0----29.40- 45.1 42.8----
2024-02-23 01:30 pmSSW 8.0 8.9----29.40- 45.3 42.8----
2024-02-23 01:24 pmSSW 7.0 7.0----29.40- 45.1 42.8----
2024-02-23 01:18 pmSSW 6.0 7.0----29.40- 45.3 42.8----
2024-02-23 01:12 pmSSW 6.0 7.0----29.40- 45.3 42.8----
2024-02-23 01:06 pmSSW 7.0 8.0----29.41- 45.3 42.6----
2024-02-23 01:00 pmSSW 6.0 7.0----29.41-0.07 45.3 42.6----
2024-02-23 12:54 pmSSW 6.0 6.0----29.41- 45.5 42.6----
2024-02-23 12:48 pmSSW 6.0 7.0----29.41- 45.9 42.6----
2024-02-23 12:42 pmSSW 6.0 7.0----29.42- 45.9 42.6----
2024-02-23 12:36 pm SW 8.9 9.9----29.42- 45.9 42.6----
2024-02-23 12:30 pm SW 8.9 9.9----29.42- 46.4 42.6----
2024-02-23 12:24 pm SW 8.0 8.9----29.43- 46.0 42.6----
2024-02-23 12:18 pmSSW 6.0 8.0----29.43- 45.3 42.6----
2024-02-23 12:12 pmSSW 7.0 8.9----29.44- 45.0 42.6----
2024-02-23 12:06 pmSSW 7.0 9.9----29.44- 45.0 42.6----
2024-02-23 12:00 pm S 6.0 7.0----29.45-0.06 45.0 42.6----
2024-02-23 11:54 amSSW 6.0 7.0----29.45- 45.1 42.6----
2024-02-23 11:48 amSSW 7.0 8.0----29.45- 45.5 42.6----
2024-02-23 11:42 amSSW 7.0 8.0----29.45- 45.5 42.6----
2024-02-23 11:36 amSSW 7.0 8.0----29.45- 45.3 42.6----
2024-02-23 11:30 amSSW 8.0 8.9----29.46- 45.3 42.6----
2024-02-23 11:24 amSSW 8.0 9.9----29.45- 45.5 42.6----
2024-02-23 11:18 amSSW 7.0 8.9----29.46- 45.9 42.6----
2024-02-23 11:12 amSSW 7.0 8.0----29.46- 46.2 42.6----
2024-02-23 11:06 am SW 4.1 4.1----29.45- 46.8 42.6----
2024-02-23 11:00 am SW 4.1 5.1----29.46-0.05 47.3 42.6----
2024-02-23 10:54 amWSW 5.1 6.0----29.46- 47.1 42.6----
2024-02-23 10:48 am SW 6.0 8.0----29.46- 46.8 42.6----
2024-02-23 10:42 am SW 7.0 8.9----29.47- 46.6 42.6----
2024-02-23 10:36 am SW 11.1 12.0----29.47- 45.7 42.6----
2024-02-23 10:30 am SW 8.9 9.9----29.47- 45.9 42.6----
2024-02-23 10:24 amSSW 8.0 8.0----29.47- 46.2 42.6----
2024-02-23 10:18 am SW 8.0 8.9----29.47- 46.2 42.6----
2024-02-23 10:12 amSSW 8.0 9.9----29.47- 45.9 42.6----
2024-02-23 10:06 am SW 5.1 7.0----29.47- 47.3 42.6----
2024-02-23 10:00 am SW 6.0 7.0----29.48-0.03 47.5 42.6----
2024-02-23 09:54 amWSW 7.0 8.9----29.48- 47.3 42.6----
2024-02-23 09:48 am SW 9.9 13.0----29.49- 47.1 42.6----
2024-02-23 09:42 am SW 12.0 14.0----29.49- 46.9 42.6----
2024-02-23 09:36 am SW 11.1 14.0----29.50- 46.6 42.6----
2024-02-23 09:30 am SW 11.1 14.0----29.50- 46.8 42.6----
2024-02-23 09:24 am SW 11.1 14.0----29.50- 46.6 42.6----
2024-02-23 09:18 am SW 11.1 14.0----29.50- 46.4 42.6----
2024-02-23 09:12 am SW 9.9 12.0----29.50- 46.6 42.6----
2024-02-23 09:06 am SW 9.9 12.0----29.51- 46.0 42.6----
2024-02-23 09:00 am SW 11.1 12.0----29.51+0.00 46.2 42.6----
2024-02-23 08:54 am SW 11.1 14.0----29.51- 46.9 42.6----
2024-02-23 08:48 am SW 11.1 13.0----29.51- 46.8 42.6----
2024-02-23 08:42 am SW 9.9 14.0----29.51- 46.6 42.6----
2024-02-23 08:36 am SW 9.9 12.0----29.51- 46.2 42.6----
2024-02-23 08:30 am SW 9.9 11.1----29.50- 46.2 42.6----
2024-02-23 08:24 am SW 12.0 14.0----29.51- 46.4 42.6----
2024-02-23 08:18 am SW 8.9 12.0----29.50- 46.6 42.6----
2024-02-23 08:12 am SW 9.9 12.0----29.50- 46.8 42.6----
2024-02-23 08:06 am SW 11.1 13.0----29.50- 46.4 42.6----
2024-02-23 08:00 am SW 11.1 13.0----29.50-0.01 46.2 42.6----
2024-02-23 07:54 am SW 9.9 12.0----29.51- 45.9 42.6----
2024-02-23 07:48 am SW 9.9 12.0----29.50- 46.2 42.6----
2024-02-23 07:42 am SW 8.9 11.1----29.51- 46.0 42.6----
2024-02-23 07:36 am SW 9.9 12.0----29.50- 45.7 42.6----
2024-02-23 07:30 amSSW 8.9 11.1----29.50- 45.5 42.6----
2024-02-23 07:24 am SW 8.9 11.1----29.50- 45.5 42.6----
2024-02-23 07:18 am SW 8.9 11.1----29.50- 45.7 42.8----
2024-02-23 07:12 am SW 8.9 11.1----29.51- 45.9 42.8----
2024-02-23 07:06 am SW 9.9 11.1----29.50- 45.7 42.8----
2024-02-23 07:00 amSSW 9.9 12.0----29.51-0.01 46.2 42.8----
2024-02-23 06:54 am SW 12.0 13.0----29.51- 46.2 42.8----
2024-02-23 06:48 am SW 8.9 13.0----29.51- 46.4 42.8----
2024-02-23 06:42 am SW 8.9 12.0----29.51- 46.6 42.8----
2024-02-23 06:36 am SW 9.9 13.0----29.51- 46.4 42.8----
2024-02-23 06:30 am SW 8.0 8.9----29.51- 45.1 42.8----
2024-02-23 06:24 am SW 8.0 8.9----29.51- 44.8 42.8----
2024-02-23 06:18 am SW 8.9 9.9----29.51- 45.1 42.8----
2024-02-23 06:12 amSSW 11.1 13.0----29.51- 45.0 42.8----
2024-02-23 06:06 am SW 9.9 12.0----29.51- 45.0 42.8----
2024-02-23 06:00 amSSW 11.1 13.0----29.51-0.03 44.8 42.8----
2024-02-23 05:54 amSSW 11.1 12.0----29.51- 44.8 42.8----
2024-02-23 05:48 amSSW 12.0 13.0----29.51- 45.0 42.8----
2024-02-23 05:42 amSSW 12.0 14.0----29.52- 45.0 42.8----
2024-02-23 05:36 amSSW 11.1 12.0----29.52- 45.0 42.8----
2024-02-23 05:30 amSSW 8.9 11.1----29.52- 45.7 42.8----
2024-02-23 05:24 am SW 12.0 15.0----29.52- 46.9 42.8----
2024-02-23 05:18 am SW 11.1 14.0----29.52- 46.8 42.8----
2024-02-23 05:12 am SW 13.0 15.9----29.52- 46.6 42.8----
2024-02-23 05:06 am SW 12.0 15.0----29.52- 46.2 43.0----
2024-02-23 05:00 am SW 12.0 15.0----29.52-0.05 46.2 43.0----
2024-02-23 04:54 am SW 13.0 15.9----29.52- 46.4 43.2----
2024-02-23 04:48 am SW 12.0 15.0----29.52- 46.9 43.2----
2024-02-23 04:42 am SW 14.0 17.1----29.52- 46.9 43.3----
2024-02-23 04:36 am SW 14.0 18.1----29.52- 46.9 43.3----
2024-02-23 04:30 am SW 15.0 20.0----29.52- 47.5 43.3----
2024-02-23 04:24 am SW 15.9 20.0----29.52- 47.3 43.3----
2024-02-23 04:18 am SW 14.0 18.1----29.52- 47.1 43.3----
2024-02-23 04:12 am SW 13.0 15.0----29.52- 46.8 43.3----
2024-02-23 04:06 am SW 14.0 15.9----29.52- 46.8 43.3----
2024-02-23 04:00 am SW 14.0 18.1----29.52-0.08 46.6 43.2----
2024-02-23 03:54 am SW 15.0 18.1----29.52- 46.6 43.2----
2024-02-23 03:48 am SW 14.0 17.1----29.52- 46.4 43.2----
2024-02-23 03:42 am SW 12.0 17.1----29.53- 46.2 43.2----
2024-02-23 03:36 am SW 12.0 14.0----29.53- 45.9 43.2----
2024-02-23 03:30 am SW 12.0 14.0----29.53- 45.7 43.2----
2024-02-23 03:24 am SW 12.0 15.0----29.53- 45.7 43.2----
2024-02-23 03:18 am SW 12.0 15.0----29.53- 45.7 43.2----
2024-02-23 03:12 am SW 12.0 15.0----29.54- 45.3 43.2----
2024-02-23 03:06 amSSW 11.1 13.0----29.54- 44.8 43.2----
2024-02-23 03:00 amSSW 13.0 15.0----29.54-0.09 44.8 43.2----
2024-02-23 02:54 amSSW 14.0 15.9----29.54- 45.0 43.2----
2024-02-23 02:48 amSSW 15.0 18.1----29.54- 45.0 43.2----
2024-02-23 02:42 amSSW 15.9 18.1----29.54- 45.1 43.2----
2024-02-23 02:36 amSSW 15.9 18.1----29.54- 45.3 43.2----
2024-02-23 02:30 amSSW 15.9 18.1----29.55- 45.3 43.0----
2024-02-23 02:24 am SW 15.0 18.1----29.55- 45.3 43.0----
2024-02-23 02:18 am SW 15.0 20.0----29.56- 45.3 43.0----
2024-02-23 02:12 am SW 15.0 17.1----29.56- 45.1 43.0----
2024-02-23 02:06 amSSW 15.0 17.1----29.56- 45.1 43.0----
2024-02-23 02:00 amSSW 15.0 17.1----29.57-0.09 45.1 43.0----
2024-02-23 01:54 amSSW 14.0 17.1----29.57- 45.0 42.8----
2024-02-23 01:48 amSSW 15.0 17.1----29.57- 45.0 42.8----
2024-02-23 01:42 amSSW 14.0 18.1----29.57- 45.1 42.8----
2024-02-23 01:36 amSSW 15.0 19.0----29.58- 45.1 42.8----
2024-02-23 01:30 amSSW 14.0 17.1----29.58- 45.0 42.8----
2024-02-23 01:24 amSSW 14.0 15.9----29.58- 45.0 42.8----
2024-02-23 01:18 amSSW 14.0 17.1----29.59- 45.0 42.8----
2024-02-23 01:12 amSSW 14.0 17.1----29.59- 45.1 42.8----
2024-02-23 01:06 amSSW 15.0 18.1----29.59- 45.3 42.8----
2024-02-23 01:00 amSSW 17.1 20.0----29.60-0.08 45.5 42.8----
2024-02-23 12:54 am SW 18.1 21.0----29.60- 45.7 42.8----
2024-02-23 12:48 am SW 17.1 20.0----29.60- 45.7 42.8----
2024-02-23 12:42 amSSW 17.1 20.0----29.61- 45.7 42.8----
2024-02-23 12:36 am SW 18.1 21.0----29.61- 45.9 42.8----
2024-02-23 12:30 am SW 20.0 24.1----29.61- 46.2 42.8----
2024-02-23 12:24 amSSW 19.0 25.1----29.62- 45.9 42.8----
2024-02-23 12:18 amSSW 19.0 24.1----29.62- 45.9 42.8----
2024-02-23 12:12 amSSW 19.0 22.9----29.62- 46.0 42.8----
2024-02-23 12:06 amSSW 19.0 22.0----29.62- 45.9 42.8----
2024-02-23 12:00 amSSW 18.1 22.0----29.63-0.09 45.7 42.8----
2024-02-22 11:54 pmSSW 15.9 19.0----29.63- 45.5 42.8----
2024-02-22 11:48 pmSSW 15.0 18.1----29.64- 45.3 42.8----
2024-02-22 11:42 pmSSW 15.9 19.0----29.64- 45.5 42.8----
2024-02-22 11:36 pmSSW 18.1 21.0----29.64- 45.5 42.8----
2024-02-22 11:30 pmSSW 17.1 19.0----29.64- 45.5 42.6----
2024-02-22 11:24 pmSSW 15.9 20.0----29.65- 45.3 42.8----
2024-02-22 11:18 pmSSW 15.9 20.0----29.65- 45.5 42.8----
2024-02-22 11:12 pmSSW 15.0 18.1----29.65- 45.3 42.8----
2024-02-22 11:06 pmSSW 13.0 17.1----29.66- 45.1 42.8----
2024-02-22 11:00 pm SW 14.0 17.1----29.66-0.09 45.1 42.8----
2024-02-22 10:54 pm SW 14.0 15.9----29.66- 45.1 42.8----
2024-02-22 10:48 pm SW 14.0 17.1----29.66- 45.1 42.6----
2024-02-22 10:42 pm SW 15.0 17.1----29.66- 45.1 42.8----
2024-02-22 10:36 pm SW 14.0 17.1----29.67- 45.1 42.8----
2024-02-22 10:30 pm SW 13.0 15.0----29.67- 45.1 42.6----
2024-02-22 10:24 pm SW 13.0 15.0----29.67- 45.3 42.6----
2024-02-22 10:18 pmSSW 15.0 18.1----29.67- 45.5 42.8----
2024-02-22 10:12 pmSSW 14.0 17.1----29.67- 45.5 42.8----
2024-02-22 10:06 pmSSW 14.0 17.1----29.67- 45.5 42.8----
2024-02-22 10:00 pmSSW 14.0 15.9----29.67-0.09 45.3 42.8----
2024-02-22 09:54 pmSSW 13.0 15.9----29.68- 45.3 42.8----